Location: Krakow
(50.0830°N, 19.9170°E)
Time: 20:56:56
(UTC+01:00)

Altair - Pass Details

Date: 08 December 2023
Orbit: 1501 x 1682 km, 47.2° (Epoch: 03 March)

Event Time Altitude Azimuth Distance (km) Brightness Sun altitude
Rises 10:59:56 0° 276° (W) 4,775 10.0 16.9°
Reaches altitude 10° 11:03:04 10° 274° (W) 3,765 9.5 16.9°
Maximum altitude 11:12:28 70° 193° (SSW) 1,609 8.3 17.1°
Drops below altitude 10° 11:21:35 10° 112° (ESE) 3,657 9.9 17.2°
Sets 11:24:35 0° 111° (ESE) 4,631 10.3 17.2°
